Year,Month,Day,Hour,Minute,Value (Times are PST for temperature in C)
2018,09,28,00,00,11.60
2018,09,28,00,01,11.60
2018,09,28,00,02,11.60
2018,09,28,00,03,11.60
2018,09,28,00,04,11.60
2018,09,28,00,05,11.60
2018,09,28,00,06,11.60
2018,09,28,00,07,11.60
2018,09,28,00,08,11.60
2018,09,28,00,09,11.60
2018,09,28,00,10,11.60
2018,09,28,00,11,11.60
2018,09,28,00,12,11.60
2018,09,28,00,13,11.60
2018,09,28,00,14,11.60
2018,09,28,00,15,11.60
2018,09,28,00,16,11.60
2018,09,28,00,17,11.60
2018,09,28,00,18,11.60
2018,09,28,00,19,11.70
2018,09,28,00,20,11.70
2018,09,28,00,21,11.70
2018,09,28,00,22,11.70
2018,09,28,00,23,11.70
2018,09,28,00,24,11.60
2018,09,28,00,25,11.60
2018,09,28,00,26,11.60
2018,09,28,00,27,11.50
2018,09,28,00,28,11.50
2018,09,28,00,29,11.40
2018,09,28,00,30,11.40
2018,09,28,00,31,11.40
2018,09,28,00,32,11.30
2018,09,28,00,33,11.30
2018,09,28,00,34,11.30
2018,09,28,00,35,11.30
2018,09,28,00,36,11.30
2018,09,28,00,37,11.30
2018,09,28,00,38,11.30
2018,09,28,00,39,11.30
2018,09,28,00,40,11.30
2018,09,28,00,41,11.30
2018,09,28,00,42,11.30
2018,09,28,00,43,11.30
2018,09,28,00,44,11.30
2018,09,28,00,45,11.30
2018,09,28,00,46,11.30
2018,09,28,00,47,11.30
2018,09,28,00,48,11.30
2018,09,28,00,49,11.30
2018,09,28,00,50,11.30
2018,09,28,00,51,11.30
2018,09,28,00,52,11.30
2018,09,28,00,53,11.20
2018,09,28,00,54,11.20
2018,09,28,00,55,11.20
2018,09,28,00,56,11.20
2018,09,28,00,57,11.20
2018,09,28,00,58,11.20
2018,09,28,00,59,11.20
2018,09,28,01,00,11.20
2018,09,28,01,01,11.20
2018,09,28,01,02,11.20
2018,09,28,01,03,11.20
2018,09,28,01,04,11.20
2018,09,28,01,05,11.20
2018,09,28,01,06,11.20
2018,09,28,01,07,11.10
2018,09,28,01,08,11.10
2018,09,28,01,09,11.20
2018,09,28,01,10,11.20
2018,09,28,01,11,11.20
2018,09,28,01,12,11.20
2018,09,28,01,13,11.20
2018,09,28,01,14,11.30
2018,09,28,01,15,11.20
2018,09,28,01,16,11.20
2018,09,28,01,17,11.20
2018,09,28,01,18,11.20
2018,09,28,01,19,11.10
2018,09,28,01,20,11.10
2018,09,28,01,21,11.10
2018,09,28,01,22,11.00
2018,09,28,01,23,11.00
2018,09,28,01,24,11.00
2018,09,28,01,25,10.90
2018,09,28,01,26,10.90
2018,09,28,01,27,10.90
2018,09,28,01,28,10.90
2018,09,28,01,29,10.90
2018,09,28,01,30,10.90
2018,09,28,01,31,10.90
2018,09,28,01,32,10.90
2018,09,28,01,33,10.90
2018,09,28,01,34,10.90
2018,09,28,01,35,10.90
2018,09,28,01,36,10.90
2018,09,28,01,37,10.90
2018,09,28,01,38,10.90
2018,09,28,01,39,10.90
2018,09,28,01,40,10.90
2018,09,28,01,41,10.90
2018,09,28,01,42,10.90
2018,09,28,01,43,10.90
2018,09,28,01,44,10.90
2018,09,28,01,45,10.90
2018,09,28,01,46,10.90
2018,09,28,01,47,10.90
2018,09,28,01,48,10.90
2018,09,28,01,49,10.90
2018,09,28,01,50,10.90
2018,09,28,01,51,10.90
2018,09,28,01,52,10.90
2018,09,28,01,53,10.90
2018,09,28,01,54,10.90
2018,09,28,01,55,10.90
2018,09,28,01,56,10.80
2018,09,28,01,57,10.80
2018,09,28,01,58,10.80
2018,09,28,01,59,10.80
2018,09,28,02,00,10.80
2018,09,28,02,01,10.80
2018,09,28,02,02,10.70
2018,09,28,02,03,10.70
2018,09,28,02,04,10.70
2018,09,28,02,05,10.70
2018,09,28,02,06,10.60
2018,09,28,02,07,10.60
2018,09,28,02,08,10.60
2018,09,28,02,09,10.60
2018,09,28,02,10,10.60
2018,09,28,02,11,10.60
2018,09,28,02,12,10.60
2018,09,28,02,13,10.50
2018,09,28,02,14,10.50
2018,09,28,02,15,10.50
2018,09,28,02,16,10.40
2018,09,28,02,17,10.40
2018,09,28,02,18,10.40
2018,09,28,02,19,10.40
2018,09,28,02,20,10.40
2018,09,28,02,21,10.30
2018,09,28,02,22,10.30
2018,09,28,02,23,10.30
2018,09,28,02,24,10.30
2018,09,28,02,25,10.30
2018,09,28,02,26,10.30
2018,09,28,02,27,10.20
2018,09,28,02,28,10.20
2018,09,28,02,29,10.20
2018,09,28,02,30,10.20
2018,09,28,02,31,10.30
2018,09,28,02,32,10.30
2018,09,28,02,33,10.30
2018,09,28,02,34,10.30
2018,09,28,02,35,10.30
2018,09,28,02,36,10.40
2018,09,28,02,37,10.50
2018,09,28,02,38,10.50
2018,09,28,02,39,10.60
2018,09,28,02,40,10.60
2018,09,28,02,41,10.60
2018,09,28,02,42,10.70
2018,09,28,02,43,10.70
2018,09,28,02,44,10.70
2018,09,28,02,45,10.70
2018,09,28,02,46,10.60
2018,09,28,02,47,10.60
2018,09,28,02,48,10.50
2018,09,28,02,49,10.50
2018,09,28,02,50,10.50
2018,09,28,02,51,10.40
2018,09,28,02,52,10.30
2018,09,28,02,53,10.30
2018,09,28,02,54,10.30
2018,09,28,02,55,10.30
2018,09,28,02,56,10.40
2018,09,28,02,57,10.40
2018,09,28,02,58,10.40
2018,09,28,02,59,10.40
2018,09,28,03,00,10.40
2018,09,28,03,01,10.40
2018,09,28,03,02,10.50
2018,09,28,03,03,10.50
2018,09,28,03,04,10.50
2018,09,28,03,05,10.60
2018,09,28,03,06,10.60
2018,09,28,03,07,10.70
2018,09,28,03,08,10.70
2018,09,28,03,09,10.70
2018,09,28,03,10,10.80
2018,09,28,03,11,10.90
2018,09,28,03,12,10.80
2018,09,28,03,13,10.80
2018,09,28,03,14,10.70
2018,09,28,03,15,10.70
2018,09,28,03,16,10.70
2018,09,28,03,17,10.70
2018,09,28,03,18,10.70
2018,09,28,03,19,10.70
2018,09,28,03,20,10.80
2018,09,28,03,21,10.80
2018,09,28,03,22,10.80
2018,09,28,03,23,10.80
2018,09,28,03,24,10.80
2018,09,28,03,25,10.70
2018,09,28,03,26,10.70
2018,09,28,03,27,10.80
2018,09,28,03,28,10.80
2018,09,28,03,29,10.80
2018,09,28,03,30,10.80
2018,09,28,03,31,10.80
2018,09,28,03,32,10.90
2018,09,28,03,33,11.00
2018,09,28,03,34,11.10
2018,09,28,03,35,11.10
2018,09,28,03,36,11.10
2018,09,28,03,37,11.20
2018,09,28,03,38,11.10
2018,09,28,03,39,11.10
2018,09,28,03,40,11.10
2018,09,28,03,41,11.00
2018,09,28,03,42,11.00
2018,09,28,03,43,10.90
2018,09,28,03,44,10.80
2018,09,28,03,45,10.90
2018,09,28,03,46,10.90
2018,09,28,03,47,10.90
2018,09,28,03,48,10.90
2018,09,28,03,49,10.90
2018,09,28,03,50,11.00
2018,09,28,03,51,11.00
2018,09,28,03,52,11.10
2018,09,28,03,53,11.10
2018,09,28,03,54,11.10
2018,09,28,03,55,11.10
2018,09,28,03,56,11.10
2018,09,28,03,57,11.10
2018,09,28,03,58,11.10
2018,09,28,03,59,11.10
2018,09,28,04,00,11.20
2018,09,28,04,01,11.20
2018,09,28,04,02,11.30
2018,09,28,04,03,11.30
2018,09,28,04,04,11.30
2018,09,28,04,05,11.30
2018,09,28,04,06,11.30
2018,09,28,04,07,11.30
2018,09,28,04,08,11.30
2018,09,28,04,09,11.20
2018,09,28,04,10,11.20
2018,09,28,04,11,11.20
2018,09,28,04,12,11.20
2018,09,28,04,13,11.20
2018,09,28,04,14,11.20
2018,09,28,04,15,11.20
2018,09,28,04,16,11.20
2018,09,28,04,17,11.20
2018,09,28,04,18,11.20
2018,09,28,04,19,11.20
2018,09,28,04,20,11.20
2018,09,28,04,21,11.30
2018,09,28,04,22,11.30
2018,09,28,04,23,11.30
2018,09,28,04,24,11.40
2018,09,28,04,25,11.40
2018,09,28,04,26,11.40
2018,09,28,04,27,11.40
2018,09,28,04,28,11.30
2018,09,28,04,29,11.30
2018,09,28,04,30,11.30
2018,09,28,04,31,11.30
2018,09,28,04,32,11.20
2018,09,28,04,33,11.20
2018,09,28,04,34,11.30
2018,09,28,04,35,11.30
2018,09,28,04,36,11.30
2018,09,28,04,37,11.30
2018,09,28,04,38,11.30
2018,09,28,04,39,11.30
2018,09,28,04,40,11.30
2018,09,28,04,41,11.30
2018,09,28,04,42,11.30
2018,09,28,04,43,11.40
2018,09,28,04,44,11.40
2018,09,28,04,45,11.40
2018,09,28,04,46,11.40
2018,09,28,04,47,11.40
2018,09,28,04,48,11.40
2018,09,28,04,49,11.40
2018,09,28,04,50,11.50
2018,09,28,04,51,11.40
2018,09,28,04,52,11.40
2018,09,28,04,53,11.40
2018,09,28,04,54,11.30
2018,09,28,04,55,11.30
2018,09,28,04,56,11.30
2018,09,28,04,57,11.30
2018,09,28,04,58,11.30
2018,09,28,04,59,11.30
2018,09,28,05,00,11.30
2018,09,28,05,01,11.40
2018,09,28,05,02,11.50
2018,09,28,05,03,11.50
2018,09,28,05,04,11.60
2018,09,28,05,05,11.60
2018,09,28,05,06,11.60
2018,09,28,05,07,11.60
2018,09,28,05,08,11.70
2018,09,28,05,09,11.70
2018,09,28,05,10,11.70
2018,09,28,05,11,11.70
2018,09,28,05,12,11.80
2018,09,28,05,13,11.80
2018,09,28,05,14,11.90
2018,09,28,05,15,11.90
2018,09,28,05,16,11.80
2018,09,28,05,17,11.80
2018,09,28,05,18,11.80
2018,09,28,05,19,11.70
2018,09,28,05,20,11.60
2018,09,28,05,21,11.70
2018,09,28,05,22,11.70
2018,09,28,05,23,11.70
2018,09,28,05,24,11.70
2018,09,28,05,25,11.80
2018,09,28,05,26,11.80
2018,09,28,05,27,11.80
2018,09,28,05,28,11.80
2018,09,28,05,29,11.80
2018,09,28,05,30,11.80
2018,09,28,05,31,11.80
2018,09,28,05,32,11.80
2018,09,28,05,33,11.90
2018,09,28,05,34,11.90
2018,09,28,05,35,11.90
2018,09,28,05,36,11.90
2018,09,28,05,37,11.90
2018,09,28,05,38,12.00
2018,09,28,05,39,12.00
2018,09,28,05,40,12.10
2018,09,28,05,41,12.20
2018,09,28,05,42,12.30
2018,09,28,05,43,12.30
2018,09,28,05,44,12.30
2018,09,28,05,45,12.40
2018,09,28,05,46,12.40
2018,09,28,05,47,12.50
2018,09,28,05,48,12.50
2018,09,28,05,49,12.50
2018,09,28,05,50,12.50
2018,09,28,05,51,12.60
2018,09,28,05,52,12.60
2018,09,28,05,53,12.70
2018,09,28,05,54,12.70
2018,09,28,05,55,12.80
2018,09,28,05,56,12.80
2018,09,28,05,57,12.80
2018,09,28,05,58,12.80
2018,09,28,05,59,12.70
2018,09,28,06,00,12.70
2018,09,28,06,01,12.80
2018,09,28,06,02,13.00
2018,09,28,06,03,13.20
2018,09,28,06,04,13.40
2018,09,28,06,05,13.50
2018,09,28,06,06,13.70
2018,09,28,06,07,14.00
2018,09,28,06,08,14.40
2018,09,28,06,09,14.70
2018,09,28,06,10,14.80
2018,09,28,06,11,14.80
2018,09,28,06,12,14.90
2018,09,28,06,13,15.00
2018,09,28,06,14,15.10
2018,09,28,06,15,15.30
2018,09,28,06,16,15.30
2018,09,28,06,17,15.40
2018,09,28,06,18,15.50
2018,09,28,06,19,15.60
2018,09,28,06,20,15.80
2018,09,28,06,21,15.90
2018,09,28,06,22,16.00
2018,09,28,06,23,16.10
2018,09,28,06,24,16.20
2018,09,28,06,25,16.40
2018,09,28,06,26,16.40
2018,09,28,06,27,16.50
2018,09,28,06,28,16.50
2018,09,28,06,29,16.50
2018,09,28,06,30,16.40
2018,09,28,06,31,16.40
2018,09,28,06,32,16.40
2018,09,28,06,33,16.40
2018,09,28,06,34,16.30
2018,09,28,06,35,16.30
2018,09,28,06,36,16.30
2018,09,28,06,37,16.40
2018,09,28,06,38,16.40
2018,09,28,06,39,16.30
2018,09,28,06,40,16.20
2018,09,28,06,41,16.20
2018,09,28,06,42,16.00
2018,09,28,06,43,15.90
2018,09,28,06,44,15.80
2018,09,28,06,45,15.80
2018,09,28,06,46,15.80
2018,09,28,06,47,15.90
2018,09,28,06,48,16.00
2018,09,28,06,49,16.00
2018,09,28,06,50,15.90
2018,09,28,06,51,16.00
2018,09,28,06,52,16.00
2018,09,28,06,53,16.10
2018,09,28,06,54,16.10
2018,09,28,06,55,16.10
2018,09,28,06,56,15.90
2018,09,28,06,57,15.70
2018,09,28,06,58,15.50
2018,09,28,06,59,15.50
2018,09,28,07,00,15.50
2018,09,28,07,01,15.40
2018,09,28,07,02,15.40
2018,09,28,07,03,15.40
2018,09,28,07,04,15.40
2018,09,28,07,05,15.40
2018,09,28,07,06,15.40
2018,09,28,07,07,15.40
2018,09,28,07,08,15.30
2018,09,28,07,09,15.30
2018,09,28,07,10,15.30
2018,09,28,07,11,15.20
2018,09,28,07,12,15.20
2018,09,28,07,13,15.10
2018,09,28,07,14,15.10
2018,09,28,07,15,15.10
2018,09,28,07,16,15.10
2018,09,28,07,17,15.00
2018,09,28,07,18,14.80
2018,09,28,07,19,14.80
2018,09,28,07,20,14.70
2018,09,28,07,21,14.70
2018,09,28,07,22,14.50
2018,09,28,07,23,14.40
2018,09,28,07,24,14.30
2018,09,28,07,25,14.20
2018,09,28,07,26,14.10
2018,09,28,07,27,14.00
2018,09,28,07,28,13.90
2018,09,28,07,29,13.90
2018,09,28,07,30,13.90
2018,09,28,07,31,13.90
2018,09,28,07,32,13.90
2018,09,28,07,33,13.90
2018,09,28,07,34,13.90
2018,09,28,07,35,13.90
2018,09,28,07,36,14.00
2018,09,28,07,37,14.10
2018,09,28,07,38,14.10
2018,09,28,07,39,14.10
2018,09,28,07,40,14.20
2018,09,28,07,41,14.30
2018,09,28,07,42,14.40
2018,09,28,07,43,14.40
2018,09,28,07,44,14.40
2018,09,28,07,45,14.40
2018,09,28,07,46,14.40
2018,09,28,07,47,14.40
2018,09,28,07,48,14.40
2018,09,28,07,49,14.50
2018,09,28,07,50,14.50
2018,09,28,07,51,14.50
2018,09,28,07,52,14.60
2018,09,28,07,53,14.60
2018,09,28,07,54,14.60
2018,09,28,07,55,14.60
2018,09,28,07,56,14.70
2018,09,28,07,57,14.70
2018,09,28,07,58,14.80
2018,09,28,07,59,14.80
2018,09,28,08,00,14.90
2018,09,28,08,01,14.90
2018,09,28,08,02,14.90
2018,09,28,08,03,14.90
2018,09,28,08,04,14.90
2018,09,28,08,05,14.90
2018,09,28,08,06,14.90
2018,09,28,08,07,15.00
2018,09,28,08,08,15.00
2018,09,28,08,09,15.10
2018,09,28,08,10,15.10
2018,09,28,08,11,15.20
2018,09,28,08,12,15.20
2018,09,28,08,13,15.20
2018,09,28,08,14,15.20
2018,09,28,08,15,15.20
2018,09,28,08,16,15.30
2018,09,28,08,17,15.40
2018,09,28,08,18,15.40
2018,09,28,08,19,15.40
2018,09,28,08,20,15.40
2018,09,28,08,21,15.40
2018,09,28,08,22,15.50
2018,09,28,08,23,15.50
2018,09,28,08,24,15.60
2018,09,28,08,25,15.60
2018,09,28,08,26,15.70
2018,09,28,08,27,15.70
2018,09,28,08,28,15.70
2018,09,28,08,29,15.80
2018,09,28,08,30,15.80
2018,09,28,08,31,15.90
2018,09,28,08,32,15.90
2018,09,28,08,33,16.00
2018,09,28,08,34,16.10
2018,09,28,08,35,16.10
2018,09,28,08,36,16.10
2018,09,28,08,37,16.20
2018,09,28,08,38,16.20
2018,09,28,08,39,16.20
2018,09,28,08,40,16.20
2018,09,28,08,41,16.20
2018,09,28,08,42,16.30
2018,09,28,08,43,16.30
2018,09,28,08,44,16.40
2018,09,28,08,45,16.40
2018,09,28,08,46,16.50
2018,09,28,08,47,16.50
2018,09,28,08,48,16.60
2018,09,28,08,49,16.60
2018,09,28,08,50,16.70
2018,09,28,08,51,16.80
2018,09,28,08,52,16.80
2018,09,28,08,53,16.90
2018,09,28,08,54,16.90
2018,09,28,08,55,17.00
2018,09,28,08,56,17.10
2018,09,28,08,57,17.10
2018,09,28,08,58,17.20
2018,09,28,08,59,17.30
2018,09,28,09,00,17.30
2018,09,28,09,01,17.30
2018,09,28,09,02,17.40
2018,09,28,09,03,17.40
2018,09,28,09,04,17.50
2018,09,28,09,05,17.60
2018,09,28,09,06,17.70
2018,09,28,09,07,17.70
2018,09,28,09,08,17.80
2018,09,28,09,09,17.80
2018,09,28,09,10,17.90
2018,09,28,09,11,17.90
2018,09,28,09,12,17.90
2018,09,28,09,13,18.00
2018,09,28,09,14,18.00
2018,09,28,09,15,18.10
2018,09,28,09,16,18.10
2018,09,28,09,17,18.10
2018,09,28,09,18,18.10
2018,09,28,09,19,18.20
2018,09,28,09,20,18.20
2018,09,28,09,21,18.20
2018,09,28,09,22,18.30
2018,09,28,09,23,18.40
2018,09,28,09,24,18.40
2018,09,28,09,25,18.50
2018,09,28,09,26,18.50
2018,09,28,09,27,18.60
2018,09,28,09,28,18.70
2018,09,28,09,29,18.70
2018,09,28,09,30,18.80
2018,09,28,09,31,18.80
2018,09,28,09,32,18.90
2018,09,28,09,33,18.90
2018,09,28,09,34,19.00
2018,09,28,09,35,19.00
2018,09,28,09,36,19.00
2018,09,28,09,37,19.00
2018,09,28,09,38,19.00
2018,09,28,09,39,19.00
2018,09,28,09,40,19.00
2018,09,28,09,41,19.10
2018,09,28,09,42,19.10
2018,09,28,09,43,19.20
2018,09,28,09,44,19.20
2018,09,28,09,45,19.20
2018,09,28,09,46,19.30
2018,09,28,09,47,19.40
2018,09,28,09,48,19.50
2018,09,28,09,49,19.50
2018,09,28,09,50,19.60
2018,09,28,09,51,19.70
2018,09,28,09,52,19.70
2018,09,28,09,53,19.80
2018,09,28,09,54,19.90
2018,09,28,09,55,20.00
2018,09,28,09,56,20.10
2018,09,28,09,57,20.10
2018,09,28,09,58,20.20
2018,09,28,09,59,20.20
2018,09,28,10,00,20.30
2018,09,28,10,01,20.30
2018,09,28,10,02,20.40
2018,09,28,10,03,20.50
2018,09,28,10,04,20.50
2018,09,28,10,05,20.60
2018,09,28,10,06,20.70
2018,09,28,10,07,20.70
2018,09,28,10,08,20.80
2018,09,28,10,09,20.80
2018,09,28,10,10,20.90
2018,09,28,10,11,20.90
2018,09,28,10,12,21.00
2018,09,28,10,13,21.10
2018,09,28,10,14,21.10
2018,09,28,10,15,21.20
2018,09,28,10,16,21.20
2018,09,28,10,17,21.20
2018,09,28,10,18,21.30
2018,09,28,10,19,21.30
2018,09,28,10,20,21.40
2018,09,28,10,21,21.50
2018,09,28,10,22,21.50
2018,09,28,10,23,21.60
2018,09,28,10,24,21.70
2018,09,28,10,25,21.80
2018,09,28,10,26,21.80
2018,09,28,10,27,21.80
2018,09,28,10,28,21.80
2018,09,28,10,29,21.80
2018,09,28,10,30,21.80
2018,09,28,10,31,21.80
2018,09,28,10,32,21.80
2018,09,28,10,33,21.80
2018,09,28,10,34,21.80
2018,09,28,10,35,21.80
2018,09,28,10,36,21.80
2018,09,28,10,37,21.80
2018,09,28,10,38,21.90
2018,09,28,10,39,21.90
2018,09,28,10,40,21.90
2018,09,28,10,41,21.90
2018,09,28,10,42,22.00
2018,09,28,10,43,22.10
2018,09,28,10,44,22.10
2018,09,28,10,45,22.10
2018,09,28,10,46,22.10
2018,09,28,10,47,22.20
2018,09,28,10,48,22.20
2018,09,28,10,49,22.10
2018,09,28,10,50,22.10
2018,09,28,10,51,22.10
2018,09,28,10,52,22.10
2018,09,28,10,53,22.10
2018,09,28,10,54,22.10
2018,09,28,10,55,22.10
2018,09,28,10,56,22.00
2018,09,28,10,57,21.90
2018,09,28,10,58,21.90
2018,09,28,10,59,21.90
2018,09,28,11,00,21.90
2018,09,28,11,01,22.00
2018,09,28,11,02,22.00
2018,09,28,11,03,22.10
2018,09,28,11,04,22.10
2018,09,28,11,05,22.20
2018,09,28,11,06,22.20
2018,09,28,11,07,22.30
2018,09,28,11,08,22.30
2018,09,28,11,09,22.30
2018,09,28,11,10,22.30
2018,09,28,11,11,22.20
2018,09,28,11,12,22.20
2018,09,28,11,13,22.20
2018,09,28,11,14,22.20
2018,09,28,11,15,22.20
2018,09,28,11,16,22.20
2018,09,28,11,17,22.30
2018,09,28,11,18,22.30
2018,09,28,11,19,22.30
2018,09,28,11,20,22.30
2018,09,28,11,21,22.30
2018,09,28,11,22,22.30
2018,09,28,11,23,22.30
2018,09,28,11,24,22.30
2018,09,28,11,25,22.30
2018,09,28,11,26,22.40
2018,09,28,11,27,22.50
2018,09,28,11,28,22.60
2018,09,28,11,29,22.60
2018,09,28,11,30,22.60
2018,09,28,11,31,22.60
2018,09,28,11,32,22.60
2018,09,28,11,33,22.60
2018,09,28,11,34,22.60
2018,09,28,11,35,22.60
2018,09,28,11,36,22.60
2018,09,28,11,37,22.60
2018,09,28,11,38,22.60
2018,09,28,11,39,22.60
2018,09,28,11,40,22.50
2018,09,28,11,41,22.50
2018,09,28,11,42,22.60
2018,09,28,11,43,22.60
2018,09,28,11,44,22.60
2018,09,28,11,45,22.60
2018,09,28,11,46,22.60
2018,09,28,11,47,22.60
2018,09,28,11,48,22.60
2018,09,28,11,49,22.60
2018,09,28,11,50,22.60
2018,09,28,11,51,22.70
2018,09,28,11,52,22.80
2018,09,28,11,53,22.80
2018,09,28,11,54,22.90
2018,09,28,11,55,22.90
2018,09,28,11,56,23.00
2018,09,28,11,57,22.90
2018,09,28,11,58,22.90
2018,09,28,11,59,22.90
2018,09,28,12,00,22.90
2018,09,28,12,01,22.80
2018,09,28,12,02,22.80
2018,09,28,12,03,22.70
2018,09,28,12,04,22.70
2018,09,28,12,05,22.70
2018,09,28,12,06,22.70
2018,09,28,12,07,22.70
2018,09,28,12,08,22.70
2018,09,28,12,09,22.80
2018,09,28,12,10,22.80
2018,09,28,12,11,22.90
2018,09,28,12,12,23.00
2018,09,28,12,13,23.00
2018,09,28,12,14,23.10
2018,09,28,12,15,23.10
2018,09,28,12,16,23.10
2018,09,28,12,17,23.10
2018,09,28,12,18,23.20
2018,09,28,12,19,23.30
2018,09,28,12,20,23.30
2018,09,28,12,21,23.30
2018,09,28,12,22,23.40
2018,09,28,12,23,23.50
2018,09,28,12,24,23.60
2018,09,28,12,25,23.70
2018,09,28,12,26,23.60
2018,09,28,12,27,23.60
2018,09,28,12,28,23.60
2018,09,28,12,29,23.60
2018,09,28,12,30,23.50
2018,09,28,12,31,23.50
2018,09,28,12,32,23.40
2018,09,28,12,33,23.40
2018,09,28,12,34,23.30
2018,09,28,12,35,23.20
2018,09,28,12,36,23.20
2018,09,28,12,37,23.20
2018,09,28,12,38,23.20
2018,09,28,12,39,23.10
2018,09,28,12,40,23.10
2018,09,28,12,41,23.10
2018,09,28,12,42,23.10
2018,09,28,12,43,23.20
2018,09,28,12,44,23.20
2018,09,28,12,45,23.30
2018,09,28,12,46,23.30
2018,09,28,12,47,23.40
2018,09,28,12,48,23.50
2018,09,28,12,49,23.60
2018,09,28,12,50,23.60
2018,09,28,12,51,23.70
2018,09,28,12,52,23.70
2018,09,28,12,53,23.70
2018,09,28,12,54,23.70
2018,09,28,12,55,23.60
2018,09,28,12,56,23.50
2018,09,28,12,57,23.40
2018,09,28,12,58,23.30
2018,09,28,12,59,23.30
2018,09,28,13,00,23.20
2018,09,28,13,01,23.20
2018,09,28,13,02,23.20
2018,09,28,13,03,23.10
2018,09,28,13,04,23.10
2018,09,28,13,05,23.10
2018,09,28,13,06,23.20
2018,09,28,13,07,23.20
2018,09,28,13,08,23.20
2018,09,28,13,09,23.20
2018,09,28,13,10,23.20
2018,09,28,13,11,23.30
2018,09,28,13,12,23.30
2018,09,28,13,13,23.40
2018,09,28,13,14,23.40
2018,09,28,13,15,23.50
2018,09,28,13,16,23.50
2018,09,28,13,17,23.50
2018,09,28,13,18,23.60
2018,09,28,13,19,23.60
2018,09,28,13,20,23.60
2018,09,28,13,21,23.70
2018,09,28,13,22,23.70
2018,09,28,13,23,23.70
2018,09,28,13,24,23.70
2018,09,28,13,25,23.70
2018,09,28,13,26,23.70
2018,09,28,13,27,23.80
2018,09,28,13,28,23.70
2018,09,28,13,29,23.70
2018,09,28,13,30,23.70
2018,09,28,13,31,23.60
2018,09,28,13,32,23.60
2018,09,28,13,33,23.60
2018,09,28,13,34,23.60
2018,09,28,13,35,23.70
2018,09,28,13,36,23.80
2018,09,28,13,37,23.90
2018,09,28,13,38,24.00
2018,09,28,13,39,24.10
2018,09,28,13,40,24.10
2018,09,28,13,41,24.20
2018,09,28,13,42,24.20
2018,09,28,13,43,24.20
2018,09,28,13,44,24.20
2018,09,28,13,45,24.20
2018,09,28,13,46,24.20
2018,09,28,13,47,24.10
2018,09,28,13,48,24.10
2018,09,28,13,49,24.00
2018,09,28,13,50,23.90
2018,09,28,13,51,23.80
2018,09,28,13,52,23.70
2018,09,28,13,53,23.60
2018,09,28,13,54,23.60
2018,09,28,13,55,23.60
2018,09,28,13,56,23.60
2018,09,28,13,57,23.60
2018,09,28,13,58,23.60
2018,09,28,13,59,23.70
2018,09,28,14,00,23.70
2018,09,28,14,01,23.80
2018,09,28,14,02,23.80
2018,09,28,14,03,23.80
2018,09,28,14,04,23.80
2018,09,28,14,05,23.80
2018,09,28,14,06,23.70
2018,09,28,14,07,23.70
2018,09,28,14,08,23.70
2018,09,28,14,09,23.70
2018,09,28,14,10,23.80
2018,09,28,14,11,23.70
2018,09,28,14,12,23.70
2018,09,28,14,13,23.70
2018,09,28,14,14,23.70
2018,09,28,14,15,23.70
2018,09,28,14,16,23.70
2018,09,28,14,17,23.80
2018,09,28,14,18,23.80
2018,09,28,14,19,23.90
2018,09,28,14,20,23.90
2018,09,28,14,21,23.90
2018,09,28,14,22,23.80
2018,09,28,14,23,23.90
2018,09,28,14,24,23.90
2018,09,28,14,25,23.90
2018,09,28,14,26,23.90
2018,09,28,14,27,23.90
2018,09,28,14,28,23.90
2018,09,28,14,29,23.90
2018,09,28,14,30,23.90
2018,09,28,14,31,24.00
2018,09,28,14,32,24.00
2018,09,28,14,33,24.00
2018,09,28,14,34,24.00
2018,09,28,14,35,24.00
2018,09,28,14,36,24.00
2018,09,28,14,37,23.90
2018,09,28,14,38,23.90
2018,09,28,14,39,23.80
2018,09,28,14,40,23.80
2018,09,28,14,41,23.90
2018,09,28,14,42,23.90
2018,09,28,14,43,23.90
2018,09,28,14,44,24.00
2018,09,28,14,45,24.00
2018,09,28,14,46,24.00
2018,09,28,14,47,24.00
2018,09,28,14,48,24.10
2018,09,28,14,49,24.10
2018,09,28,14,50,24.00
2018,09,28,14,51,24.00
2018,09,28,14,52,24.00
2018,09,28,14,53,24.00
2018,09,28,14,54,24.10
2018,09,28,14,55,24.20
2018,09,28,14,56,24.30
2018,09,28,14,57,24.40
2018,09,28,14,58,24.40
2018,09,28,14,59,24.40
2018,09,28,15,00,24.40
2018,09,28,15,01,24.40
2018,09,28,15,02,24.40
2018,09,28,15,03,24.40
2018,09,28,15,04,24.40
2018,09,28,15,05,24.30
2018,09,28,15,06,24.30
2018,09,28,15,07,24.40
2018,09,28,15,08,24.40
2018,09,28,15,09,24.40
2018,09,28,15,10,24.40
2018,09,28,15,11,24.40
2018,09,28,15,12,24.30
2018,09,28,15,13,24.40
2018,09,28,15,14,24.40
2018,09,28,15,15,24.50
2018,09,28,15,16,24.50
2018,09,28,15,17,24.60
2018,09,28,15,18,24.60
2018,09,28,15,19,24.60
2018,09,28,15,20,24.60
2018,09,28,15,21,24.60
2018,09,28,15,22,24.70
2018,09,28,15,23,24.80
2018,09,28,15,24,24.80
2018,09,28,15,25,24.90
2018,09,28,15,26,25.00
2018,09,28,15,27,25.10
2018,09,28,15,28,25.10
2018,09,28,15,29,25.20
2018,09,28,15,30,25.20
2018,09,28,15,31,25.10
2018,09,28,15,32,25.10
2018,09,28,15,33,25.10
2018,09,28,15,34,25.00
2018,09,28,15,35,24.80
2018,09,28,15,36,24.70
2018,09,28,15,37,24.60
2018,09,28,15,38,24.50
2018,09,28,15,39,24.50
2018,09,28,15,40,24.40
2018,09,28,15,41,24.40
2018,09,28,15,42,24.40
2018,09,28,15,43,24.40
2018,09,28,15,44,24.40
2018,09,28,15,45,24.50
2018,09,28,15,46,24.50
2018,09,28,15,47,24.50
2018,09,28,15,48,24.50
2018,09,28,15,49,24.50
2018,09,28,15,50,24.50
2018,09,28,15,51,24.50
2018,09,28,15,52,24.50
2018,09,28,15,53,24.50
2018,09,28,15,54,24.40
2018,09,28,15,55,24.40
2018,09,28,15,56,24.40
2018,09,28,15,57,24.40
2018,09,28,15,58,24.30
2018,09,28,15,59,24.30
2018,09,28,16,00,24.30
2018,09,28,16,01,24.30
2018,09,28,16,02,24.40
2018,09,28,16,03,24.40
2018,09,28,16,04,24.40
2018,09,28,16,05,24.40
2018,09,28,16,06,24.40
2018,09,28,16,07,24.40
2018,09,28,16,08,24.50
2018,09,28,16,09,24.50
2018,09,28,16,10,24.50
2018,09,28,16,11,24.50
2018,09,28,16,12,24.40
2018,09,28,16,13,24.40
2018,09,28,16,14,24.30
2018,09,28,16,15,24.30
2018,09,28,16,16,24.30
2018,09,28,16,17,24.30
2018,09,28,16,18,24.30
2018,09,28,16,19,24.30
2018,09,28,16,20,24.20
2018,09,28,16,21,24.10
2018,09,28,16,22,24.00
2018,09,28,16,23,23.90
2018,09,28,16,24,23.70
2018,09,28,16,25,23.60
2018,09,28,16,26,23.50
2018,09,28,16,27,23.50
2018,09,28,16,28,23.40
2018,09,28,16,29,23.40
2018,09,28,16,30,23.40
2018,09,28,16,31,23.30
2018,09,28,16,32,23.40
2018,09,28,16,33,23.40
2018,09,28,16,34,23.40
2018,09,28,16,35,23.40
2018,09,28,16,36,23.40
2018,09,28,16,37,23.30
2018,09,28,16,38,23.30
2018,09,28,16,39,23.30
2018,09,28,16,40,23.30
2018,09,28,16,41,23.30
2018,09,28,16,42,23.20
2018,09,28,16,43,23.20
2018,09,28,16,44,23.20
2018,09,28,16,45,23.20
2018,09,28,16,46,23.20
2018,09,28,16,47,23.20
2018,09,28,16,48,23.30
2018,09,28,16,49,23.20
2018,09,28,16,50,23.20
2018,09,28,16,51,23.20
2018,09,28,16,52,23.20
2018,09,28,16,53,23.20
2018,09,28,16,54,23.20
2018,09,28,16,55,23.20
2018,09,28,16,56,23.10
2018,09,28,16,57,23.10
2018,09,28,16,58,23.00
2018,09,28,16,59,23.00
2018,09,28,17,00,22.90
2018,09,28,17,01,22.90
2018,09,28,17,02,22.90
2018,09,28,17,03,22.90
2018,09,28,17,04,23.00
2018,09,28,17,05,23.00
2018,09,28,17,06,23.00
2018,09,28,17,07,23.10
2018,09,28,17,08,23.10
2018,09,28,17,09,23.10
2018,09,28,17,10,23.10
2018,09,28,17,11,23.10
2018,09,28,17,12,23.10
2018,09,28,17,13,23.10
2018,09,28,17,14,23.10
2018,09,28,17,15,23.00
2018,09,28,17,16,23.00
2018,09,28,17,17,22.90
2018,09,28,17,18,22.90
2018,09,28,17,19,22.90